418P/LINEAR (2021)

Japanese version
Home page
Updated on August 1, 2021

---------------------------------------------------------------------

* Profile

Designation 418P/2020 Y5
Recovery Date December 23, 2020
Magnitude 21.7 mag
Recoverer Pan-STARRS 2 telescope (Haleakala)

* Pictures

* Orbital Elements

Epoch 2021 Nov. 2.0 TT = JDT 2459520.5
T 2021 Oct. 17.56674 TT                                 Rudenko
q   1.7028932            (2000.0)            P               Q
n   0.08609260     Peri.  307.10064     -0.70604535     +0.70105468
a   5.0795529      Node   277.65725     -0.61346496     -0.67610804
e   0.6647553      Incl.    5.79746     -0.35378059     -0.22671624
P  11.4
From 740 observations 2010 Jan. 14-2021 May 1, mean residual 0".6.

* Magnitudes Graph

        m1 = 11.0 + 5 log d + 16.0 log r(t + 20)

---------------------------------------------------------------------

The orbital elements are published on M.P.E.C. 2021-J28.
The magnitudes graphs are made with Comet for Windows.

---------------------------------------------------------------------

Copyright(C) Seiichi Yoshida (comet@aerith.net). All rights reserved.